Year,Month,Day,Hour,Minute,Value (Times are PST for windspeed in km/hr)
2007,06,12,00,00,6.40
2007,06,12,00,01,4.60
2007,06,12,00,02,6.00
2007,06,12,00,03,4.40
2007,06,12,00,04,7.00
2007,06,12,00,05,5.60
2007,06,12,00,06,5.90
2007,06,12,00,07,7.50
2007,06,12,00,08,5.30
2007,06,12,00,09,3.90
2007,06,12,00,10,4.70
2007,06,12,00,11,4.80
2007,06,12,00,12,3.30
2007,06,12,00,13,1.90
2007,06,12,00,14,3.00
2007,06,12,00,15,2.00
2007,06,12,00,16,2.00
2007,06,12,00,17,2.00
2007,06,12,00,18,0.80
2007,06,12,00,19,0.00
2007,06,12,00,20,0.80
2007,06,12,00,21,1.50
2007,06,12,00,22,0.60
2007,06,12,00,23,1.20
2007,06,12,00,24,2.40
2007,06,12,00,25,0.90
2007,06,12,00,26,1.70
2007,06,12,00,27,0.90
2007,06,12,00,28,0.00
2007,06,12,00,29,0.00
2007,06,12,00,30,0.80
2007,06,12,00,31,2.80
2007,06,12,00,32,2.90
2007,06,12,00,33,3.40
2007,06,12,00,34,2.50
2007,06,12,00,35,1.70
2007,06,12,00,36,0.50
2007,06,12,00,37,0.20
2007,06,12,00,38,0.30
2007,06,12,00,39,0.50
2007,06,12,00,40,0.20
2007,06,12,00,41,0.10
2007,06,12,00,42,0.20
2007,06,12,00,43,0.00
2007,06,12,00,44,0.00
2007,06,12,00,45,0.00
2007,06,12,00,46,0.10
2007,06,12,00,47,0.20
2007,06,12,00,48,0.00
2007,06,12,00,49,0.00
2007,06,12,00,50,0.00
2007,06,12,00,51,0.00
2007,06,12,00,52,0.00
2007,06,12,00,53,0.00
2007,06,12,00,54,0.20
2007,06,12,00,55,0.00
2007,06,12,00,56,0.20
2007,06,12,00,57,0.20
2007,06,12,00,58,1.50
2007,06,12,00,59,4.10
2007,06,12,01,00,1.30
2007,06,12,01,01,0.30
2007,06,12,01,02,0.60
2007,06,12,01,03,0.00
2007,06,12,01,04,0.00
2007,06,12,01,05,0.00
2007,06,12,01,06,0.00
2007,06,12,01,07,3.20
2007,06,12,01,08,3.10
2007,06,12,01,09,0.40
2007,06,12,01,10,0.00
2007,06,12,01,11,0.00
2007,06,12,01,12,0.00
2007,06,12,01,13,0.40
2007,06,12,01,14,0.00
2007,06,12,01,15,0.00
2007,06,12,01,16,0.00
2007,06,12,01,17,0.00
2007,06,12,01,18,0.00
2007,06,12,01,19,0.00
2007,06,12,01,20,0.00
2007,06,12,01,21,0.00
2007,06,12,01,22,0.00
2007,06,12,01,23,0.00
2007,06,12,01,24,0.00
2007,06,12,01,25,0.00
2007,06,12,01,26,0.30
2007,06,12,01,27,2.80
2007,06,12,01,28,2.60
2007,06,12,01,29,0.30
2007,06,12,01,30,0.20
2007,06,12,01,31,0.00
2007,06,12,01,32,0.00
2007,06,12,01,33,0.80
2007,06,12,01,34,0.00
2007,06,12,01,35,0.00
2007,06,12,01,36,0.00
2007,06,12,01,37,0.00
2007,06,12,01,38,0.00
2007,06,12,01,39,0.40
2007,06,12,01,40,2.50
2007,06,12,01,41,1.40
2007,06,12,01,42,1.00
2007,06,12,01,43,2.50
2007,06,12,01,44,1.40
2007,06,12,01,45,2.10
2007,06,12,01,46,2.40
2007,06,12,01,47,1.60
2007,06,12,01,48,2.40
2007,06,12,01,49,3.70
2007,06,12,01,50,4.30
2007,06,12,01,51,3.20
2007,06,12,01,52,2.70
2007,06,12,01,53,3.00
2007,06,12,01,54,3.20
2007,06,12,01,55,3.60
2007,06,12,01,56,4.60
2007,06,12,01,57,4.80
2007,06,12,01,58,5.40
2007,06,12,01,59,5.70
2007,06,12,02,00,6.20
2007,06,12,02,01,5.20
2007,06,12,02,02,4.50
2007,06,12,02,03,4.20
2007,06,12,02,04,3.60
2007,06,12,02,05,3.10
2007,06,12,02,06,3.00
2007,06,12,02,07,4.30
2007,06,12,02,08,4.70
2007,06,12,02,09,2.50
2007,06,12,02,10,3.70
2007,06,12,02,11,2.30
2007,06,12,02,12,1.90
2007,06,12,02,13,3.20
2007,06,12,02,14,3.30
2007,06,12,02,15,3.10
2007,06,12,02,16,3.40
2007,06,12,02,17,3.10
2007,06,12,02,18,3.30
2007,06,12,02,19,3.70
2007,06,12,02,20,3.60
2007,06,12,02,21,3.70
2007,06,12,02,22,3.40
2007,06,12,02,23,3.90
2007,06,12,02,24,2.20
2007,06,12,02,25,3.00
2007,06,12,02,26,2.80
2007,06,12,02,27,3.00
2007,06,12,02,28,1.70
2007,06,12,02,29,1.10
2007,06,12,02,30,0.30
2007,06,12,02,31,2.50
2007,06,12,02,32,1.20
2007,06,12,02,33,0.70
2007,06,12,02,34,0.90
2007,06,12,02,35,0.90
2007,06,12,02,36,1.40
2007,06,12,02,37,0.00
2007,06,12,02,38,0.10
2007,06,12,02,39,2.50
2007,06,12,02,40,2.40
2007,06,12,02,41,1.70
2007,06,12,02,42,0.80
2007,06,12,02,43,0.60
2007,06,12,02,44,0.50
2007,06,12,02,45,0.10
2007,06,12,02,46,0.00
2007,06,12,02,47,0.20
2007,06,12,02,48,0.20
2007,06,12,02,49,0.10
2007,06,12,02,50,0.00
2007,06,12,02,51,0.00
2007,06,12,02,52,0.00
2007,06,12,02,53,0.00
2007,06,12,02,54,0.00
2007,06,12,02,55,0.00
2007,06,12,02,56,1.10
2007,06,12,02,57,0.30
2007,06,12,02,58,0.10
2007,06,12,02,59,0.00
2007,06,12,03,00,0.00
2007,06,12,03,01,0.00
2007,06,12,03,02,0.00
2007,06,12,03,03,0.00
2007,06,12,03,04,0.00
2007,06,12,03,05,0.00
2007,06,12,03,06,2.40
2007,06,12,03,07,1.60
2007,06,12,03,08,0.20
2007,06,12,03,09,3.00
2007,06,12,03,10,1.00
2007,06,12,03,11,0.00
2007,06,12,03,12,0.00
2007,06,12,03,13,0.60
2007,06,12,03,14,0.00
2007,06,12,03,15,0.60
2007,06,12,03,16,0.20
2007,06,12,03,17,0.00
2007,06,12,03,18,0.00
2007,06,12,03,19,0.10
2007,06,12,03,20,0.00
2007,06,12,03,21,0.00
2007,06,12,03,22,0.00
2007,06,12,03,23,0.00
2007,06,12,03,24,0.00
2007,06,12,03,25,0.00
2007,06,12,03,26,0.00
2007,06,12,03,27,0.00
2007,06,12,03,28,0.00
2007,06,12,03,29,0.00
2007,06,12,03,30,0.00
2007,06,12,03,31,0.00
2007,06,12,03,32,0.00
2007,06,12,03,33,0.00
2007,06,12,03,34,0.00
2007,06,12,03,35,0.00
2007,06,12,03,36,0.00
2007,06,12,03,37,0.00
2007,06,12,03,38,0.00
2007,06,12,03,39,0.00
2007,06,12,03,40,0.00
2007,06,12,03,41,0.00
2007,06,12,03,42,0.00
2007,06,12,03,43,0.00
2007,06,12,03,44,0.00
2007,06,12,03,45,0.00
2007,06,12,03,46,0.00
2007,06,12,03,47,0.00
2007,06,12,03,48,0.00
2007,06,12,03,49,0.60
2007,06,12,03,50,0.80
2007,06,12,03,51,0.10
2007,06,12,03,52,0.10
2007,06,12,03,53,0.00
2007,06,12,03,54,0.00
2007,06,12,03,55,0.00
2007,06,12,03,56,0.00
2007,06,12,03,57,0.00
2007,06,12,03,58,0.20
2007,06,12,03,59,0.00
2007,06,12,04,00,0.00
2007,06,12,04,01,0.00
2007,06,12,04,02,0.00
2007,06,12,04,03,0.00
2007,06,12,04,04,0.00
2007,06,12,04,05,0.00
2007,06,12,04,06,0.10
2007,06,12,04,07,1.40
2007,06,12,04,08,0.10
2007,06,12,04,09,0.00
2007,06,12,04,10,0.00
2007,06,12,04,11,0.00
2007,06,12,04,12,0.00
2007,06,12,04,13,0.00
2007,06,12,04,14,0.00
2007,06,12,04,15,0.00
2007,06,12,04,16,0.00
2007,06,12,04,17,0.50
2007,06,12,04,18,0.20
2007,06,12,04,19,3.10
2007,06,12,04,20,4.00
2007,06,12,04,21,4.20
2007,06,12,04,22,3.30
2007,06,12,04,23,4.20
2007,06,12,04,24,1.90
2007,06,12,04,25,1.20
2007,06,12,04,26,3.20
2007,06,12,04,27,1.90
2007,06,12,04,28,1.40
2007,06,12,04,29,1.30
2007,06,12,04,30,4.70
2007,06,12,04,31,4.50
2007,06,12,04,32,5.00
2007,06,12,04,33,4.00
2007,06,12,04,34,2.60
2007,06,12,04,35,1.20
2007,06,12,04,36,1.40
2007,06,12,04,37,2.60
2007,06,12,04,38,1.20
2007,06,12,04,39,0.10
2007,06,12,04,40,0.00
2007,06,12,04,41,0.20
2007,06,12,04,42,0.00
2007,06,12,04,43,0.00
2007,06,12,04,44,0.00
2007,06,12,04,45,0.00
2007,06,12,04,46,0.00
2007,06,12,04,47,0.20
2007,06,12,04,48,0.30
2007,06,12,04,49,0.10
2007,06,12,04,50,0.00
2007,06,12,04,51,0.00
2007,06,12,04,52,0.00
2007,06,12,04,53,0.00
2007,06,12,04,54,0.00
2007,06,12,04,55,0.00
2007,06,12,04,56,0.00
2007,06,12,04,57,0.00
2007,06,12,04,58,0.00
2007,06,12,04,59,0.00
2007,06,12,05,00,0.00
2007,06,12,05,01,0.00
2007,06,12,05,02,0.00
2007,06,12,05,03,0.00
2007,06,12,05,04,0.00
2007,06,12,05,05,0.00
2007,06,12,05,06,0.00
2007,06,12,05,07,0.00
2007,06,12,05,08,0.00
2007,06,12,05,09,0.00
2007,06,12,05,10,0.00
2007,06,12,05,11,0.00
2007,06,12,05,12,0.00
2007,06,12,05,13,0.00
2007,06,12,05,14,0.00
2007,06,12,05,15,0.00
2007,06,12,05,16,0.00
2007,06,12,05,17,0.00
2007,06,12,05,18,0.00
2007,06,12,05,19,0.00
2007,06,12,05,20,0.00
2007,06,12,05,21,0.00
2007,06,12,05,22,0.00
2007,06,12,05,23,0.00
2007,06,12,05,24,0.00
2007,06,12,05,25,0.00
2007,06,12,05,26,0.00
2007,06,12,05,27,0.00
2007,06,12,05,28,0.00
2007,06,12,05,29,0.30
2007,06,12,05,30,1.90
2007,06,12,05,31,2.20
2007,06,12,05,32,0.80
2007,06,12,05,33,0.80
2007,06,12,05,34,0.10
2007,06,12,05,35,0.10
2007,06,12,05,36,0.00
2007,06,12,05,37,0.00
2007,06,12,05,38,0.00
2007,06,12,05,39,0.00
2007,06,12,05,40,0.00
2007,06,12,05,41,0.00
2007,06,12,05,42,0.00
2007,06,12,05,43,0.00
2007,06,12,05,44,0.00
2007,06,12,05,45,0.00
2007,06,12,05,46,0.00
2007,06,12,05,47,0.00
2007,06,12,05,48,0.00
2007,06,12,05,49,0.00
2007,06,12,05,50,0.10
2007,06,12,05,51,0.00
2007,06,12,05,52,0.00
2007,06,12,05,53,0.00
2007,06,12,05,54,0.00
2007,06,12,05,55,0.00
2007,06,12,05,56,0.00
2007,06,12,05,57,0.00
2007,06,12,05,58,0.00
2007,06,12,05,59,0.00
2007,06,12,06,00,0.00
2007,06,12,06,01,0.00
2007,06,12,06,02,0.00
2007,06,12,06,03,0.00
2007,06,12,06,04,0.00
2007,06,12,06,05,0.00
2007,06,12,06,06,0.00
2007,06,12,06,07,0.00
2007,06,12,06,08,0.00
2007,06,12,06,09,0.00
2007,06,12,06,10,0.00
2007,06,12,06,11,0.00
2007,06,12,06,12,0.00
2007,06,12,06,13,0.00
2007,06,12,06,14,0.00
2007,06,12,06,15,0.00
2007,06,12,06,16,0.00
2007,06,12,06,17,0.00
2007,06,12,06,18,0.00
2007,06,12,06,19,0.00
2007,06,12,06,20,0.00
2007,06,12,06,21,0.00
2007,06,12,06,22,0.00
2007,06,12,06,23,0.00
2007,06,12,06,24,0.00
2007,06,12,06,25,0.00
2007,06,12,06,26,0.00
2007,06,12,06,27,0.00
2007,06,12,06,28,0.00
2007,06,12,06,29,0.00
2007,06,12,06,30,0.00
2007,06,12,06,31,0.00
2007,06,12,06,32,0.00
2007,06,12,06,33,0.00
2007,06,12,06,34,0.00
2007,06,12,06,35,0.00
2007,06,12,06,36,0.00
2007,06,12,06,37,0.00
2007,06,12,06,38,0.00
2007,06,12,06,39,0.00
2007,06,12,06,40,0.00
2007,06,12,06,41,0.00
2007,06,12,06,42,0.00
2007,06,12,06,43,0.00
2007,06,12,06,44,0.00
2007,06,12,06,45,0.00
2007,06,12,06,46,0.00
2007,06,12,06,47,0.00
2007,06,12,06,48,0.00
2007,06,12,06,49,0.00
2007,06,12,06,50,0.00
2007,06,12,06,51,0.00
2007,06,12,06,52,0.30
2007,06,12,06,53,1.00
2007,06,12,06,54,0.20
2007,06,12,06,55,0.00
2007,06,12,06,56,0.10
2007,06,12,06,57,0.20
2007,06,12,06,58,0.00
2007,06,12,06,59,0.00
2007,06,12,07,00,1.40
2007,06,12,07,01,0.00
2007,06,12,07,02,2.00
2007,06,12,07,03,2.80
2007,06,12,07,04,1.50
2007,06,12,07,05,2.20
2007,06,12,07,06,1.10
2007,06,12,07,07,0.20
2007,06,12,07,08,1.60
2007,06,12,07,09,0.60
2007,06,12,07,10,0.70
2007,06,12,07,11,1.20
2007,06,12,07,12,0.90
2007,06,12,07,13,0.40
2007,06,12,07,14,0.20
2007,06,12,07,15,1.30
2007,06,12,07,16,0.60
2007,06,12,07,17,1.20
2007,06,12,07,18,2.60
2007,06,12,07,19,2.80
2007,06,12,07,20,2.80
2007,06,12,07,21,1.30
2007,06,12,07,22,0.40
2007,06,12,07,23,0.10
2007,06,12,07,24,0.40
2007,06,12,07,25,0.20
2007,06,12,07,26,1.70
2007,06,12,07,27,0.10
2007,06,12,07,28,0.00
2007,06,12,07,29,0.00
2007,06,12,07,30,0.00
2007,06,12,07,31,0.00
2007,06,12,07,32,0.00
2007,06,12,07,33,0.00
2007,06,12,07,34,0.00
2007,06,12,07,35,0.00
2007,06,12,07,36,0.00
2007,06,12,07,37,0.00
2007,06,12,07,38,0.00
2007,06,12,07,39,0.00
2007,06,12,07,40,0.00
2007,06,12,07,41,0.00
2007,06,12,07,42,0.00
2007,06,12,07,43,0.00
2007,06,12,07,44,0.00
2007,06,12,07,45,0.00
2007,06,12,07,46,0.00
2007,06,12,07,47,0.80
2007,06,12,07,48,1.30
2007,06,12,07,49,1.00
2007,06,12,07,50,0.00
2007,06,12,07,51,0.00
2007,06,12,07,52,0.00
2007,06,12,07,53,1.50
2007,06,12,07,54,0.70
2007,06,12,07,55,0.50
2007,06,12,07,56,0.00
2007,06,12,07,57,0.30
2007,06,12,07,58,0.30
2007,06,12,07,59,0.00
2007,06,12,08,00,0.00
2007,06,12,08,01,0.00
2007,06,12,08,02,0.10
2007,06,12,08,03,0.60
2007,06,12,08,04,0.00
2007,06,12,08,05,0.00
2007,06,12,08,06,1.40
2007,06,12,08,07,3.00
2007,06,12,08,08,3.00
2007,06,12,08,09,1.10
2007,06,12,08,10,0.30
2007,06,12,08,11,1.40
2007,06,12,08,12,0.90
2007,06,12,08,13,2.10
2007,06,12,08,14,4.70
2007,06,12,08,15,2.00
2007,06,12,08,16,0.00
2007,06,12,08,17,0.00
2007,06,12,08,18,2.10
2007,06,12,08,19,1.00
2007,06,12,08,20,3.30
2007,06,12,08,21,0.60
2007,06,12,08,22,0.10
2007,06,12,08,23,0.00
2007,06,12,08,24,0.00
2007,06,12,08,25,0.20
2007,06,12,08,26,0.80
2007,06,12,08,27,0.70
2007,06,12,08,28,2.60
2007,06,12,08,29,0.50
2007,06,12,08,30,0.80
2007,06,12,08,31,2.30
2007,06,12,08,32,0.20
2007,06,12,08,33,1.00
2007,06,12,08,34,2.00
2007,06,12,08,35,3.90
2007,06,12,08,36,2.30
2007,06,12,08,37,3.50
2007,06,12,08,38,2.50
2007,06,12,08,39,3.80
2007,06,12,08,40,3.80
2007,06,12,08,41,1.00
2007,06,12,08,42,0.80
2007,06,12,08,43,2.50
2007,06,12,08,44,2.60
2007,06,12,08,45,1.50
2007,06,12,08,46,2.90
2007,06,12,08,47,3.90
2007,06,12,08,48,0.50
2007,06,12,08,49,0.60
2007,06,12,08,50,2.50
2007,06,12,08,51,4.40
2007,06,12,08,52,3.40
2007,06,12,08,53,3.90
2007,06,12,08,54,3.00
2007,06,12,08,55,4.90
2007,06,12,08,56,5.20
2007,06,12,08,57,2.50
2007,06,12,08,58,0.70
2007,06,12,08,59,0.00
2007,06,12,09,00,0.20
2007,06,12,09,01,0.40
2007,06,12,09,02,1.10
2007,06,12,09,03,1.90
2007,06,12,09,04,0.10
2007,06,12,09,05,1.60
2007,06,12,09,06,1.70
2007,06,12,09,07,0.80
2007,06,12,09,08,0.10
2007,06,12,09,09,4.00
2007,06,12,09,10,0.40
2007,06,12,09,11,1.70
2007,06,12,09,12,0.10
2007,06,12,09,13,1.00
2007,06,12,09,14,1.40
2007,06,12,09,15,2.10
2007,06,12,09,16,2.40
2007,06,12,09,17,2.30
2007,06,12,09,18,3.10
2007,06,12,09,19,0.80
2007,06,12,09,20,0.00
2007,06,12,09,21,0.00
2007,06,12,09,22,0.10
2007,06,12,09,23,2.60
2007,06,12,09,24,2.50
2007,06,12,09,25,4.10
2007,06,12,09,26,6.40
2007,06,12,09,27,4.20
2007,06,12,09,28,1.70
2007,06,12,09,29,2.20
2007,06,12,09,30,1.80
2007,06,12,09,31,4.70
2007,06,12,09,32,3.20
2007,06,12,09,33,3.30
2007,06,12,09,34,1.90
2007,06,12,09,35,2.70
2007,06,12,09,36,0.20
2007,06,12,09,37,0.50
2007,06,12,09,38,0.10
2007,06,12,09,39,1.40
2007,06,12,09,40,5.00
2007,06,12,09,41,5.40
2007,06,12,09,42,3.10
2007,06,12,09,43,5.20
2007,06,12,09,44,4.60
2007,06,12,09,45,3.50
2007,06,12,09,46,6.50
2007,06,12,09,47,9.30
2007,06,12,09,48,9.30
2007,06,12,09,49,4.10
2007,06,12,09,50,1.10
2007,06,12,09,51,1.50
2007,06,12,09,52,2.00
2007,06,12,09,53,0.90
2007,06,12,09,54,0.80
2007,06,12,09,55,1.30
2007,06,12,09,56,0.90
2007,06,12,09,57,2.70
2007,06,12,09,58,6.00
2007,06,12,09,59,6.10
2007,06,12,10,00,3.10
2007,06,12,10,01,3.10
2007,06,12,10,02,3.00
2007,06,12,10,03,0.70
2007,06,12,10,04,5.30
2007,06,12,10,05,4.00
2007,06,12,10,06,4.70
2007,06,12,10,07,5.50
2007,06,12,10,08,3.10
2007,06,12,10,09,1.50
2007,06,12,10,10,5.20
2007,06,12,10,11,2.90
2007,06,12,10,12,4.40
2007,06,12,10,13,5.60
2007,06,12,10,14,2.70
2007,06,12,10,15,4.30
2007,06,12,10,16,3.80
2007,06,12,10,17,2.50
2007,06,12,10,18,4.00
2007,06,12,10,19,5.50
2007,06,12,10,20,3.70
2007,06,12,10,21,3.00
2007,06,12,10,22,4.10
2007,06,12,10,23,6.10
2007,06,12,10,24,4.30
2007,06,12,10,25,6.80
2007,06,12,10,26,3.40
2007,06,12,10,27,3.90
2007,06,12,10,28,2.80
2007,06,12,10,29,4.30
2007,06,12,10,30,0.70
2007,06,12,10,31,0.40
2007,06,12,10,32,4.60
2007,06,12,10,33,7.70
2007,06,12,10,34,8.60
2007,06,12,10,35,7.00
2007,06,12,10,36,6.40
2007,06,12,10,37,8.80
2007,06,12,10,38,4.70
2007,06,12,10,39,2.60
2007,06,12,10,40,2.00
2007,06,12,10,41,1.40
2007,06,12,10,42,4.30
2007,06,12,10,43,4.50
2007,06,12,10,44,2.20
2007,06,12,10,45,2.40
2007,06,12,10,46,10.20
2007,06,12,10,47,8.00
2007,06,12,10,48,2.80
2007,06,12,10,49,4.10
2007,06,12,10,50,1.90
2007,06,12,10,51,3.90
2007,06,12,10,52,5.50
2007,06,12,10,53,8.40
2007,06,12,10,54,10.40
2007,06,12,10,55,9.10
2007,06,12,10,56,10.90
2007,06,12,10,57,5.00
2007,06,12,10,58,5.10
2007,06,12,10,59,1.40
2007,06,12,11,00,3.40
2007,06,12,11,01,6.30
2007,06,12,11,02,5.10
2007,06,12,11,03,4.30
2007,06,12,11,04,4.10
2007,06,12,11,05,4.50
2007,06,12,11,06,5.40
2007,06,12,11,07,5.10
2007,06,12,11,08,1.40
2007,06,12,11,09,2.40
2007,06,12,11,10,0.40
2007,06,12,11,11,4.60
2007,06,12,11,12,9.30
2007,06,12,11,13,6.80
2007,06,12,11,14,6.50
2007,06,12,11,15,3.50
2007,06,12,11,16,2.30
2007,06,12,11,17,9.50
2007,06,12,11,18,9.70
2007,06,12,11,19,9.80
2007,06,12,11,20,8.10
2007,06,12,11,21,4.70
2007,06,12,11,22,9.30
2007,06,12,11,23,3.40
2007,06,12,11,24,16.40
2007,06,12,11,25,8.10
2007,06,12,11,26,12.10
2007,06,12,11,27,8.40
2007,06,12,11,28,4.90
2007,06,12,11,29,5.00
2007,06,12,11,30,3.70
2007,06,12,11,31,2.20
2007,06,12,11,32,6.40
2007,06,12,11,33,4.60
2007,06,12,11,34,6.90
2007,06,12,11,35,5.80
2007,06,12,11,36,1.40
2007,06,12,11,37,3.60
2007,06,12,11,38,3.10
2007,06,12,11,39,6.40
2007,06,12,11,40,7.70
2007,06,12,11,41,5.40
2007,06,12,11,42,7.10
2007,06,12,11,43,2.90
2007,06,12,11,44,1.90
2007,06,12,11,45,5.00
2007,06,12,11,46,6.40
2007,06,12,11,47,3.80
2007,06,12,11,48,6.40
2007,06,12,11,49,4.30
2007,06,12,11,50,2.70
2007,06,12,11,51,8.30
2007,06,12,11,52,3.90
2007,06,12,11,53,4.50
2007,06,12,11,54,5.70
2007,06,12,11,55,6.50
2007,06,12,11,56,8.00
2007,06,12,11,57,4.90
2007,06,12,11,58,9.40
2007,06,12,11,59,9.00
2007,06,12,12,00,12.00
2007,06,12,12,01,12.20
2007,06,12,12,02,8.90
2007,06,12,12,03,11.30
2007,06,12,12,04,11.30
2007,06,12,12,05,4.00
2007,06,12,12,06,3.50
2007,06,12,12,07,5.10
2007,06,12,12,08,6.30
2007,06,12,12,09,8.70
2007,06,12,12,10,11.70
2007,06,12,12,11,7.60
2007,06,12,12,12,6.00
2007,06,12,12,13,9.70
2007,06,12,12,14,17.00
2007,06,12,12,15,12.50
2007,06,12,12,16,8.40
2007,06,12,12,17,5.80
2007,06,12,12,18,3.50
2007,06,12,12,19,5.60
2007,06,12,12,20,3.80
2007,06,12,12,21,3.70
2007,06,12,12,22,7.60
2007,06,12,12,23,4.40
2007,06,12,12,24,4.10
2007,06,12,12,25,6.80
2007,06,12,12,26,6.80
2007,06,12,12,27,5.70
2007,06,12,12,28,6.30
2007,06,12,12,29,5.10
2007,06,12,12,30,6.00
2007,06,12,12,31,4.90
2007,06,12,12,32,7.20
2007,06,12,12,33,8.50
2007,06,12,12,34,7.00
2007,06,12,12,35,6.40
2007,06,12,12,36,7.60
2007,06,12,12,37,4.60
2007,06,12,12,38,1.80
2007,06,12,12,39,2.40
2007,06,12,12,40,9.70
2007,06,12,12,41,9.30
2007,06,12,12,42,3.10
2007,06,12,12,43,10.00
2007,06,12,12,44,8.30
2007,06,12,12,45,3.80
2007,06,12,12,46,3.30
2007,06,12,12,47,3.20
2007,06,12,12,48,3.40
2007,06,12,12,49,8.30
2007,06,12,12,50,5.60
2007,06,12,12,51,2.50
2007,06,12,12,52,0.70
2007,06,12,12,53,2.00
2007,06,12,12,54,5.10
2007,06,12,12,55,7.40
2007,06,12,12,56,4.70
2007,06,12,12,57,5.10
2007,06,12,12,58,4.50
2007,06,12,12,59,2.00
2007,06,12,13,00,2.30
2007,06,12,13,01,9.00
2007,06,12,13,02,15.20
2007,06,12,13,03,4.20
2007,06,12,13,04,2.30
2007,06,12,13,05,4.90
2007,06,12,13,06,2.40
2007,06,12,13,07,4.70
2007,06,12,13,08,5.10
2007,06,12,13,09,5.30
2007,06,12,13,10,6.20
2007,06,12,13,11,8.00
2007,06,12,13,12,2.30
2007,06,12,13,13,5.20
2007,06,12,13,14,3.20
2007,06,12,13,15,2.10
2007,06,12,13,16,1.60
2007,06,12,13,17,3.80
2007,06,12,13,18,4.90
2007,06,12,13,19,4.60
2007,06,12,13,20,3.90
2007,06,12,13,21,6.80
2007,06,12,13,22,5.20
2007,06,12,13,23,3.80
2007,06,12,13,24,2.10
2007,06,12,13,25,4.80
2007,06,12,13,26,5.40
2007,06,12,13,27,8.10
2007,06,12,13,28,5.70
2007,06,12,13,29,3.70
2007,06,12,13,30,1.00
2007,06,12,13,31,1.70
2007,06,12,13,32,1.70
2007,06,12,13,33,4.30
2007,06,12,13,34,5.40
2007,06,12,13,35,4.30
2007,06,12,13,36,1.50
2007,06,12,13,37,8.10
2007,06,12,13,38,7.50
2007,06,12,13,39,3.80
2007,06,12,13,40,2.30
2007,06,12,13,41,7.20
2007,06,12,13,42,16.50
2007,06,12,13,43,11.50
2007,06,12,13,44,7.40
2007,06,12,13,45,5.60
2007,06,12,13,46,3.10
2007,06,12,13,47,0.80
2007,06,12,13,48,4.50
2007,06,12,13,49,4.10
2007,06,12,13,50,2.70
2007,06,12,13,51,1.70
2007,06,12,13,52,5.60
2007,06,12,13,53,6.60
2007,06,12,13,54,4.80
2007,06,12,13,55,3.00
2007,06,12,13,56,2.80
2007,06,12,13,57,4.10
2007,06,12,13,58,6.80
2007,06,12,13,59,5.80
2007,06,12,14,00,2.70
2007,06,12,14,01,4.80
2007,06,12,14,02,4.10
2007,06,12,14,03,1.20
2007,06,12,14,04,6.20
2007,06,12,14,05,4.00
2007,06,12,14,06,5.90
2007,06,12,14,07,3.00
2007,06,12,14,08,1.60
2007,06,12,14,09,3.60
2007,06,12,14,10,5.30
2007,06,12,14,11,7.30
2007,06,12,14,12,4.00
2007,06,12,14,13,3.90
2007,06,12,14,14,1.40
2007,06,12,14,15,1.50
2007,06,12,14,16,4.60
2007,06,12,14,17,2.80
2007,06,12,14,18,3.70
2007,06,12,14,19,3.40
2007,06,12,14,20,2.30
2007,06,12,14,21,3.10
2007,06,12,14,22,5.20
2007,06,12,14,23,5.30
2007,06,12,14,24,7.20
2007,06,12,14,25,5.20
2007,06,12,14,26,5.70
2007,06,12,14,27,4.90
2007,06,12,14,28,5.10
2007,06,12,14,29,2.70
2007,06,12,14,30,0.30
2007,06,12,14,31,2.50
2007,06,12,14,32,3.10
2007,06,12,14,33,6.80
2007,06,12,14,34,2.10
2007,06,12,14,35,2.70
2007,06,12,14,36,1.30
2007,06,12,14,37,0.10
2007,06,12,14,38,0.90
2007,06,12,14,39,2.10
2007,06,12,14,40,2.70
2007,06,12,14,41,2.00
2007,06,12,14,42,5.30
2007,06,12,14,43,6.80
2007,06,12,14,44,2.70
2007,06,12,14,45,4.80
2007,06,12,14,46,2.50
2007,06,12,14,47,1.40
2007,06,12,14,48,0.20
2007,06,12,14,49,1.80
2007,06,12,14,50,5.30
2007,06,12,14,51,7.60
2007,06,12,14,52,8.30
2007,06,12,14,53,10.00
2007,06,12,14,54,4.30
2007,06,12,14,55,6.60
2007,06,12,14,56,3.20
2007,06,12,14,57,7.10
2007,06,12,14,58,7.20
2007,06,12,14,59,5.40
2007,06,12,15,00,5.90
2007,06,12,15,01,4.10
2007,06,12,15,02,2.80
2007,06,12,15,03,4.10
2007,06,12,15,04,1.60
2007,06,12,15,05,0.20
2007,06,12,15,06,2.70
2007,06,12,15,07,5.30
2007,06,12,15,08,4.00
2007,06,12,15,09,2.70
2007,06,12,15,10,1.00
2007,06,12,15,11,4.70
2007,06,12,15,12,3.80
2007,06,12,15,13,5.10
2007,06,12,15,14,1.10
2007,06,12,15,15,1.80
2007,06,12,15,16,3.70
2007,06,12,15,17,3.70
2007,06,12,15,18,5.50
2007,06,12,15,19,3.50
2007,06,12,15,20,0.60
2007,06,12,15,21,0.70
2007,06,12,15,22,3.90
2007,06,12,15,23,7.30
2007,06,12,15,24,5.50
2007,06,12,15,25,1.10
2007,06,12,15,26,4.30
2007,06,12,15,27,9.30
2007,06,12,15,28,7.10
2007,06,12,15,29,7.30
2007,06,12,15,30,4.10
2007,06,12,15,31,2.40
2007,06,12,15,32,2.60
2007,06,12,15,33,3.20
2007,06,12,15,34,0.40
2007,06,12,15,35,0.20
2007,06,12,15,36,2.00
2007,06,12,15,37,1.30
2007,06,12,15,38,4.80
2007,06,12,15,39,6.40
2007,06,12,15,40,0.60
2007,06,12,15,41,3.80
2007,06,12,15,42,1.00
2007,06,12,15,43,2.10
2007,06,12,15,44,3.90
2007,06,12,15,45,3.10
2007,06,12,15,46,3.80
2007,06,12,15,47,5.90
2007,06,12,15,48,9.40
2007,06,12,15,49,5.00
2007,06,12,15,50,6.70
2007,06,12,15,51,6.60
2007,06,12,15,52,4.70
2007,06,12,15,53,6.40
2007,06,12,15,54,4.40
2007,06,12,15,55,4.70
2007,06,12,15,56,5.00
2007,06,12,15,57,2.80
2007,06,12,15,58,1.50
2007,06,12,15,59,4.90
2007,06,12,16,00,5.30
2007,06,12,16,01,5.10
2007,06,12,16,02,6.00
2007,06,12,16,03,4.90
2007,06,12,16,04,6.70
2007,06,12,16,05,6.90
2007,06,12,16,06,9.20
2007,06,12,16,07,7.20
2007,06,12,16,08,7.80
2007,06,12,16,09,5.20
2007,06,12,16,10,8.00
2007,06,12,16,11,8.10
2007,06,12,16,12,7.20
2007,06,12,16,13,4.10
2007,06,12,16,14,6.80
2007,06,12,16,15,5.70
2007,06,12,16,16,9.00
2007,06,12,16,17,4.20
2007,06,12,16,18,4.40
2007,06,12,16,19,5.50
2007,06,12,16,20,6.90
2007,06,12,16,21,1.70
2007,06,12,16,22,0.20
2007,06,12,16,23,3.90
2007,06,12,16,24,7.10
2007,06,12,16,25,3.70
2007,06,12,16,26,5.30
2007,06,12,16,27,7.40
2007,06,12,16,28,2.80
2007,06,12,16,29,2.80
2007,06,12,16,30,4.20
2007,06,12,16,31,4.30
2007,06,12,16,32,2.10
2007,06,12,16,33,2.80
2007,06,12,16,34,2.10
2007,06,12,16,35,1.50
2007,06,12,16,36,6.80
2007,06,12,16,37,3.90
2007,06,12,16,38,3.20
2007,06,12,16,39,4.60
2007,06,12,16,40,5.40
2007,06,12,16,41,6.80
2007,06,12,16,42,10.20
2007,06,12,16,43,4.40
2007,06,12,16,44,3.90
2007,06,12,16,45,1.30
2007,06,12,16,46,1.10
2007,06,12,16,47,2.10
2007,06,12,16,48,1.40
2007,06,12,16,49,2.40
2007,06,12,16,50,3.00
2007,06,12,16,51,5.30
2007,06,12,16,52,7.40
2007,06,12,16,53,8.90
2007,06,12,16,54,8.80
2007,06,12,16,55,7.90
2007,06,12,16,56,9.80
2007,06,12,16,57,4.10
2007,06,12,16,58,2.70
2007,06,12,16,59,3.70
2007,06,12,17,00,8.70
2007,06,12,17,01,11.70
2007,06,12,17,02,6.70
2007,06,12,17,03,7.90
2007,06,12,17,04,5.40
2007,06,12,17,05,3.10
2007,06,12,17,06,0.00
2007,06,12,17,07,4.80
2007,06,12,17,08,5.10
2007,06,12,17,09,0.70
2007,06,12,17,10,0.60
2007,06,12,17,11,1.00
2007,06,12,17,12,4.10
2007,06,12,17,13,2.80
2007,06,12,17,14,1.40
2007,06,12,17,15,3.20
2007,06,12,17,16,2.20
2007,06,12,17,17,1.20
2007,06,12,17,18,0.40
2007,06,12,17,19,1.50
2007,06,12,17,20,5.10
2007,06,12,17,21,4.30
2007,06,12,17,22,4.70
2007,06,12,17,23,3.20
2007,06,12,17,24,10.10
2007,06,12,17,25,7.00
2007,06,12,17,26,6.40
2007,06,12,17,27,10.10
2007,06,12,17,28,10.30
2007,06,12,17,29,9.10
2007,06,12,17,30,6.00
2007,06,12,17,31,1.60
2007,06,12,17,32,3.60
2007,06,12,17,33,4.30
2007,06,12,17,34,5.30
2007,06,12,17,35,5.70
2007,06,12,17,36,2.80
2007,06,12,17,37,1.90
2007,06,12,17,38,6.90
2007,06,12,17,39,7.90
2007,06,12,17,40,7.10
2007,06,12,17,41,2.80
2007,06,12,17,42,3.80
2007,06,12,17,43,3.10
2007,06,12,17,44,5.80
2007,06,12,17,45,5.40
2007,06,12,17,46,1.90
2007,06,12,17,47,1.90
2007,06,12,17,48,1.50
2007,06,12,17,49,2.70
2007,06,12,17,50,9.80
2007,06,12,17,51,5.00
2007,06,12,17,52,7.50
2007,06,12,17,53,5.30
2007,06,12,17,54,5.60
2007,06,12,17,55,5.20
2007,06,12,17,56,7.50
2007,06,12,17,57,7.60
2007,06,12,17,58,5.80
2007,06,12,17,59,5.80
2007,06,12,18,00,6.80
2007,06,12,18,01,5.10
2007,06,12,18,02,5.60
2007,06,12,18,03,5.40
2007,06,12,18,04,3.90
2007,06,12,18,05,5.10